Regional Weather Roundup
Issued by NWS

Home | Current Version | Previous Version | Text Only | Print | Product List | Glossary Off
Versions: 1 2 3 4 5 6 7 8 9 10 11 12 13 14 15 16 17 18 19 20 21 22 23 24 25 26 27 28 29 30 31 32 33 34 35 36 37 38 39 40 41 42 43 44 45 46 47 48 49 50

000
ASUS43 KTOP 201959
RWRKS

WEATHER ROUNDUP FOR KANSAS
NATIONAL WEATHER SERVICE GOODLAND KS
300 PM CDT WED AUG 20 2014

NOTE:  "FAIR" INDICATES FEW OR NO CLOUDS BELOW 12,000 FEET WITH NO
SIGNIFICANT WEATHER AND/OR OBSTRUCTIONS TO VISIBILITY.

KSZ001>006-013>018-027>032-041>047-202100-
NORTHWEST KANSAS

CITY           SKY/WX    TMP DP  RH WIND       PRES   REMARKS
GOODLAND       MOSUNNY   93  53  25 VRB3      29.82F
HAYS           MOSUNNY   97  66  36 S23G33    29.76F HX 100
HILL CITY      MOSUNNY   97  65  34 S15G26    29.75S HX  99
RUSSELL        SUNNY     95  65  37 S25G35    29.76F HX  97
$$

KSZ061>065-074>080-084>089-202100-
SOUTHWEST KANSAS

CITY           SKY/WX    TMP DP  RH WIND       PRES   REMARKS
DODGE CITY     SUNNY     95  62  33 S25       29.81F HX  96
ELKHART          N/A     96  55  25 S15         N/A
GARDEN CITY    SUNNY     93  61  34 S21       29.80F
GREAT BEND     SUNNY     97  64  34 S20G32    29.78F HX  99
LIBERAL        SUNNY    100  59  25 S16G25    29.83F HX 100
$$

KSZ066>073-081>083-090>101-202100-
SOUTHEAST KANSAS

CITY           SKY/WX    TMP DP  RH WIND       PRES   REMARKS
CHANUTE        SUNNY     93  70  46 S21G28    29.89F HX  99
COFFEYVILLE    SUNNY     92  70  48 S17G24    29.90F HX  97
HUTCHINSON     SUNNY     97  66  36 S18G37    29.81F HX 100
NEWTON         SUNNY     93  66  40 S24G30    29.88F HX  96
PARSONS        SUNNY     94  70  45 S14G22    29.91F HX 100
WICHITA INTL   MOSUNNY   96  68  39 S20G29    29.82F HX 101
WICHITA JABRA  SUNNY     92  70  48 S20G29    29.84F HX  97
WINFIELD       MOSUNNY   93  70  46 S16G28    29.87F HX  99
$$

KSZ007>012-019>026-033>040-048>060-102>105-202100-
NORTHEAST KANSAS

CITY           SKY/WX    TMP DP  RH WIND       PRES   REMARKS
CONCORDIA      SUNNY     92  72  51 S15       29.78F HX  99
EMPORIA        MOSUNNY   93  68  43 S21G28    29.85F HX  97
LAWRENCE       PTSUNNY   95  68  41 S10       29.85F HX  99
MANHATTAN      MOSUNNY   97  69  40 S14G24    29.80F HX 103
OLATHE IND     MOSUNNY   94  67  41 S21G26    29.88F HX  97
OLATHE EXE     PTSUNNY   90  69  50 S10       29.88F
SALINA         SUNNY     96  69  41 S18G29    29.78F HX 102
TOPEKA BILLARD MOSUNNY   95  69  42 S17       29.84F HX 100
TOPEKA FORBES  MOSUNNY   94  66  39 S13G21    29.85S HX  97
$$


USA.gov is the U.S. government's official web portal to all federal, state and local government web resources and services.